Regional Weather Roundup
Issued by NWS

Home | Current Version | Previous Version | Graphics & Text | Print | Product List | Glossary On
Versions: 1 2 3 4 5 6 7 8 9 10 11 12 13 14 15 16 17 18 19 20 21 22 23 24 25 26 27 28 29 30 31 32 33 34 35 36 37 38 39 40 41 42 43 44 45 46 47 48 49 50
000
ASUS43 KDMX 050407
RWRIA

WEATHER ROUNDUP FOR IOWA
NATIONAL WEATHER SERVICE DES MOINES IA
1000 PM CST WED MAR 04 2015

NOTE: "FAIR" INDICATES FEW OR NO CLOUDS BELOW 12,000 FEET WITH NO
SIGNIFICANT WEATHER AND/OR OBSTRUCTIONS TO VISIBILITY.

* - THESE STATIONS ARE NOT NWS STATIONS...THUS NOT UNDER NWS
QUALITY CONTROL.  THEY ALSO DO NOT REPORT WEATHER SUCH
AS PRECIPITATION OR FOG.

IAZ001>003-012>014-020>022-031>034-043>046-050500-
   NORTHWEST IOWA

CITY           SKY/WX    TMP DP  RH WIND       PRES   REMARKS
CARROLL *      PTCLDY     5  -4  66 N12       30.43S WCI -11
CHEROKEE *     CLEAR      1  -8  66 NW5       30.45S WCI  -8
DENISON *      CLEAR      5  -6  61 N13       30.41S WCI -12
LE MARS *      CLEAR      1  -4  78 N5        30.47S WCI  -8
ORANGE CITY *  CLEAR      3  -6  66 N5        30.43S WCI  -6
SHELDON *      CLEAR     -2  -9  71 NW5       30.43S WCI -12
SIOUX CITY     CLEAR      7  -4  60 N8        30.47F WCI  -6
SPENCER        CLEAR      0  -8  69 NW9       30.43S WCI -15
STORM LAKE *   CLEAR      1  -8  66 NW12      30.41F WCI -15
$$

IAZ055>058-069>071-079>083-090>094-050500-
   SOUTHWEST IOWA

CITY           SKY/WX    TMP DP  RH WIND       PRES   REMARKS
ATLANTIC *     CLEAR      9  -2  61 N9        30.44R WCI  -5
AUDUBON *      CLEAR      7  -2  66 N14       30.41S WCI -10
CLARINDA *     CLEAR     14   1  57 N13       30.47R WCI   0
COUNCIL BLFS * CLEAR     10  -2  56 N9        30.43R WCI  -2
CRESTON *      CLEAR     12  -2  52 N12       30.42R WCI  -2
HARLAN  *      CLEAR      9  -2  61 N10       30.47R WCI  -6
LAMONI         CLEAR     15   1  53 N12       30.41R WCI   2
RED OAK *      PTCLDY    12   1  62 N13       30.46R WCI  -3
SHENANDOAH *   CLEAR     12   1  62 N7        30.47R WCI   2
$$

IAZ047>049-059>061-072>074-084-050500-
   CENTRAL IOWA

CITY           SKY/WX    TMP DP  RH WIND       PRES   REMARKS
AMES           LGT SNOW  11   5  77 N13       30.41F WCI  -4
ANKENY *       PTCLDY    12   5  73 NW13      30.43R WCI  -3
CHARITON *     PTCLDY    16   1  53 NW13      30.42R WCI   2
DES MOINES     CLEAR     14   3  61 N14       30.42R WCI  -1
GRINNELL*      CLOUDY    10   5  79 NW5       30.41R WCI   2
KNOXVILLE *    LGT SNOW  16   9  73 N8        30.41R WCI   5
MARSHALLTOWN   CLOUDY     6  -1  73 N9        30.40R WCI  -8
PELLA *        MOCLDY    14  10  85 N7        30.43R WCI   4
PERRY *          N/A     10   3  72 N15       30.42F WCI  -6
$$

IAZ004>006-015-016-023>025-035-036-050500-
   NORTH CENTRAL IOWA

CITY           SKY/WX    TMP DP  RH WIND       PRES   REMARKS
ALGONA *       CLEAR      3   0  85 N13       30.43S WCI -14
CLARION *      PTCLDY     5  -4  66 N14G20    30.42S WCI -12
ESTHERVILLE    CLEAR     -1  -8  72 NW10      30.42S WCI -17
FORT DODGE *   CLEAR      5  -8  56 NW7       30.43S WCI  -7
MASON CITY     CLEAR      0  -9  65 NW10      30.42R WCI -16
FOREST CITY *  CLEAR      3  -8  60 NW9       30.41R WCI -11
IOWA FALLS *     N/A      5  -2  72 NW18      30.41S WCI -15
$$

IAZ007>011-017>019-026>030-037>042-050>054-066-050500-
   NORTHEAST IOWA

CITY           SKY/WX    TMP DP  RH WIND       PRES   REMARKS
CEDAR RAPIDS   PTCLDY     6  -1  73 NW7       30.39R WCI  -6
CHARLES CITY * CLEAR      3  -6  66 NW15      30.40R WCI -15
CLINTON *      PTCLDY     3  -4  72 NW9       30.41R WCI -11
DECORAH *      CLEAR      3  -8  60 NW12G18   30.37R WCI -13
DUBUQUE          N/A      6  -3  66 NW12      30.35R WCI  -9
MONTICELLO *   CLEAR      0  -6  78 W5        30.39S WCI -10
OELWEIN *      CLEAR      3  -6  66 NW13      30.39S WCI -14
WATERLOO       CLEAR      5  -2  72 NW15      30.41R WCI -13
$$

IAZ064-065-067-068-078-050500-
   EAST CENTRAL IOWA

CITY           SKY/WX    TMP DP  RH WIND       PRES   REMARKS
DAVENPORT      CLOUDY     8  -1  66 NW8       30.39R WCI  -4
IOWA CITY      MOCLDY    13   2  61 NW6       30.44R WCI   4
MT. PLEASANT * CLOUDY    16   7  67 N10       30.40R WCI   3
MUSCATINE *    CLOUDY    16   3  57 N9        30.44R WCI   4
QUAD CITIES    MOCLDY    13   1  59 NW7       30.40R WCI   3
$$

IAZ062-063-075>077-085>089-095>099-050500-
   SOUTHEAST IOWA

CITY           SKY/WX    TMP DP  RH WIND       PRES   REMARKS
BURLINGTON     CLOUDY    17   4  56 N7        30.39R WCI   8
FAIRFIELD *    CLOUDY    16   7  67 N10       30.42R WCI   3
FORT MADISON * CLOUDY    16  10  79 N3        30.40R
KEOKUK *       CLOUDY    18   7  62 CALM      30.39R
OSKALOOSA *    CLOUDY    14   7  73 N8        30.42R WCI   3
CENTERVILLE *  CLEAR     18   5  57 NW12      30.42R WCI   5
OTTUMWA        CLOUDY    15   6  67 N9        30.42R WCI   3
WASHINGTON *   CLOUDY    16  10  79 N9        30.42R WCI   4
$$

ABBREVIATIONS USED IN REMARKS
   TC - TEMPERATURES IN CELSIUS
  WCI - WIND CHILL INDEX
   HX - HEAT INDEX
  VSB - VISIBILITY
$$



USA.gov is the U.S. government's official web portal to all federal, state and local government web resources and services.